KC8UZG Weather Reports


time (UTC)temp
C
wind
direction
speed
KPH
gust
KPH
rain 1hr
cm
rain 24hr
cm
rain mn
cm
humidity
%
barometer
mb
20260504215521 21 243 3.2 12.9 0.00 0.00 0.00 62 1005.2
20260504214528 21 241 3.2 12.9 0.00 0.00 0.00 63 1005.6
20260504213533 21 227 4.8 16.1 0.00 0.00 0.00 64 1005.6
20260504212539 22 214 0.0 8.0 0.00 0.00 0.00 63 1005.6
20260504211518 21 222 3.2 16.1 0.00 0.00 0.00 64 1005.6
20260504210525 22 263 3.2 24.1 0.00 0.00 0.00 61 1005.6
20260504205530 22 250 6.4 20.9 0.00 0.00 0.00 57 1005.2
20260504204536 21 189 0.0 12.9 0.00 0.00 0.00 61 1005.2
20260504203542 21 244 4.8 16.1 0.00 0.00 0.00 63 1005.6
20260504202522 21 252 8.0 20.9 0.00 0.00 0.00 64
20260504201526 21 243 6.4 20.9 0.00 0.00 0.00 64
20260504200532 21 240 12.9 24.1 0.00 0.00 0.00 64
20260504195539 21 247 3.2 20.9 0.00 0.00 0.00 65
20260504194517 21 219 1.6 8.0 0.00 0.00 0.00 67
20260504193525 20 244 1.6 8.0 0.00 0.00 0.00 68
20260504192530 20 234 1.6 8.0 0.00 0.00 0.00 70
20260504191536 20 251 0.0 20.9 0.00 0.00 0.00 69
20260504190542 21 251 3.2 16.1 0.00 0.00 0.00 67
20260504185521 21 246 6.4 27.4 0.00 0.00 0.00 65
20260504184525 21 239 6.4 20.9 0.00 0.00 0.00 64 1007.3
20260504183533 21 232 3.2 12.9 0.00 0.00 0.00 64 1007.3
20260504182539 21 249 4.8 27.4 0.00 0.00 0.00 64 1007.0
20260504181517 21 245 4.8 12.9 0.00 0.00 0.00 64
20260504180524 22 254 3.2 16.1 0.00 0.00 0.00 63
20260504175530 21 252 8.0 24.1 0.00 0.00 0.00 63
20260504174536 21 226 4.8 24.1 0.00 0.00 0.00 62
20260504173542 22 242 1.6 12.9 0.00 0.00 0.00 61 1006.6
20260504172520 22 231 6.4 20.9 0.00 0.00 0.00 61 1006.6
20260504171527 21 254 4.8 24.1 0.00 0.00 0.00 62 1006.6
20260504170533 21 252 4.8 16.1 0.00 0.00 0.00 62 1006.6
20260504150524 18 214 1.6 12.9 0.00 0.00 0.00 68 1007.3
20260504140533 15 250 1.6 8.0 0.00 0.00 0.00 74 1008.0
20260504130542 12 264 0.0 3.2 0.00 0.00 0.00 78
20260504110532 8 251 0.0 0.0 0.00 0.00 0.00 83
20260504100541 7 232 0.0 0.0 0.00 0.00 0.00 87 1008.1
20260504081525 8 224 0.0 0.0 0.00 0.00 0.00 84 1009.0
20260504080531 8 243 0.0 0.0 0.00 0.00 0.00 84 1009.0
20260504050532 10 231 0.0 0.0 0.00 0.00 0.00 76 1010.7
20260504045537 10 214 0.0 0.0 0.00 0.00 0.00 76 1010.8
20260504044516 10 209 0.0 0.0 0.00 0.00 0.00 76 1010.8
20260504043522 10 232 0.0 0.0 0.00 0.00 0.00 77 1010.8
20260504042528 10 233 0.0 0.0 0.00 0.00 0.00 78 1010.8
20260504041534 10 233 0.0 0.0 0.00 0.00 0.00 80 1010.9
20260504040541 10 212 0.0 0.0 0.00 0.00 0.00 82 1011.1
20260504035519 10 231 0.0 0.0 0.00 0.00 0.00 84 1011.1
20260504034524 10 222 0.0 0.0 0.00 0.00 0.00 84 1011.1
20260504033531 10 209 0.0 0.0 0.00 0.00 0.00 84 1011.2
20260504032537 10 226 0.0 0.0 0.00 0.00 0.00 83 1011.4
20260504031515 10 230 0.0 0.0 0.00 0.00 0.00 83 1011.5
20260504030523 10 220 0.0 0.0 0.00 0.00 0.00 83 1011.6
20260504025528 10 229 0.0 0.0 0.00 0.00 0.00 83 1011.8
20260504024533 10 248 0.0 0.0 0.00 0.00 0.00 83 1011.8
20260504023540 10 251 0.0 0.0 0.00 0.00 0.00 82 1011.8
20260504022520 10 255 0.0 0.0 0.00 0.00 0.00 83
20260504021526 10 257 0.0 0.0 0.00 0.00 0.00 83 1011.8
20260504020530 10 244 0.0 0.0 0.00 0.00 0.00 81 1011.8
20260504015537 10 126 0.0 3.2 0.00 0.00 0.00 80 1011.8
20260504014516 10 256 0.0 0.0 0.00 0.00 0.00 80 1011.8
20260504013522 10 102 0.0 12.9 0.00 0.00 0.00 79 1011.8
20260504012528 10 114 0.0 0.0 0.00 0.00 0.00 79 1011.8
20260504011534 10 269 0.0 0.0 0.00 0.00 0.00 79 1011.8
20260504010539 10 135 0.0 0.0 0.00 0.00 0.00 79 1011.8
20260504005518 10 129 0.0 0.0 0.00 0.00 0.00 80
20260504004524 10 216 0.0 0.0 0.00 0.00 0.00 80 1011.8
20260504003531 10 247 0.0 0.0 0.00 0.00 0.00 79 1011.8
20260504002537 10 25 0.0 8.0 0.00 0.00 0.00 79 1011.8
20260504001515 10 39 0.0 0.0 0.00 0.00 0.00 81 1011.8
20260504000522 10 102 0.0 3.2 0.00 0.00 0.00 81 1011.8
20260503235527 10 61 0.0 12.9 0.00 0.00 0.00 82 1011.8
20260503234533 10 110 3.2 12.9 0.00 0.00 0.00 81 1011.8
20260503233540 10 96 0.0 8.0 0.00 0.00 0.00 81 1011.8
20260503232519 10 89 0.0 8.0 0.00 0.00 0.00 82 1011.8
20260503231524 10 269 0.0 3.2 0.00 0.00 0.00 83 1011.8
20260503230530 10 118 0.0 8.0 0.00 0.00 0.00 84 1012.2
20260503225537 10 107 1.6 12.9 0.00 0.00 0.00 84 1012.5
20260503224542 10 86 0.0 8.0 0.00 0.00 0.00 84 1012.9
20260503223522 10 112 0.0 8.0 0.00 0.00 0.00 84 1012.9
20260503222527 10 44 0.0 0.0 0.00 0.00 0.00 84 1013.2
20260503221533 10 247 0.0 0.0 0.00 0.00 0.00 87 1013.6
20260503220539 10 177 0.0 0.0 0.00 0.00 0.00 87 1013.6